Year,Month,Day,Hour,Minute,Value (Times are PST for temperature in C)
2019,05,06,00,00,13.40
2019,05,06,00,01,13.40
2019,05,06,00,02,13.30
2019,05,06,00,03,13.30
2019,05,06,00,04,13.30
2019,05,06,00,05,13.30
2019,05,06,00,06,13.30
2019,05,06,00,07,13.20
2019,05,06,00,08,13.20
2019,05,06,00,09,13.20
2019,05,06,00,10,13.20
2019,05,06,00,11,13.10
2019,05,06,00,12,13.10
2019,05,06,00,13,13.00
2019,05,06,00,14,13.00
2019,05,06,00,15,13.00
2019,05,06,00,16,12.90
2019,05,06,00,17,12.90
2019,05,06,00,18,12.90
2019,05,06,00,19,12.80
2019,05,06,00,20,12.80
2019,05,06,00,21,12.70
2019,05,06,00,22,12.70
2019,05,06,00,23,12.60
2019,05,06,00,24,12.60
2019,05,06,00,25,12.60
2019,05,06,00,26,12.50
2019,05,06,00,27,12.50
2019,05,06,00,28,12.40
2019,05,06,00,29,12.40
2019,05,06,00,30,12.40
2019,05,06,00,31,12.30
2019,05,06,00,32,12.30
2019,05,06,00,33,12.20
2019,05,06,00,34,12.20
2019,05,06,00,35,12.20
2019,05,06,00,36,12.10
2019,05,06,00,37,12.10
2019,05,06,00,38,12.20
2019,05,06,00,39,12.20
2019,05,06,00,40,12.20
2019,05,06,00,41,12.30
2019,05,06,00,42,12.30
2019,05,06,00,43,12.40
2019,05,06,00,44,12.40
2019,05,06,00,45,12.40
2019,05,06,00,46,12.50
2019,05,06,00,47,12.50
2019,05,06,00,48,12.50
2019,05,06,00,49,12.60
2019,05,06,00,50,12.60
2019,05,06,00,51,12.60
2019,05,06,00,52,12.60
2019,05,06,00,53,12.60
2019,05,06,00,54,12.60
2019,05,06,00,55,12.60
2019,05,06,00,56,12.60
2019,05,06,00,57,12.60
2019,05,06,00,58,12.60
2019,05,06,00,59,12.70
2019,05,06,01,00,12.60
2019,05,06,01,01,12.60
2019,05,06,01,02,12.60
2019,05,06,01,03,12.50
2019,05,06,01,04,12.50
2019,05,06,01,05,12.40
2019,05,06,01,06,12.40
2019,05,06,01,07,12.40
2019,05,06,01,08,12.40
2019,05,06,01,09,12.30
2019,05,06,01,10,12.30
2019,05,06,01,11,12.30
2019,05,06,01,12,12.30
2019,05,06,01,13,12.30
2019,05,06,01,14,12.30
2019,05,06,01,15,12.20
2019,05,06,01,16,12.20
2019,05,06,01,17,12.20
2019,05,06,01,18,12.10
2019,05,06,01,19,12.10
2019,05,06,01,20,12.00
2019,05,06,01,21,11.90
2019,05,06,01,22,11.90
2019,05,06,01,23,11.80
2019,05,06,01,24,11.80
2019,05,06,01,25,11.80
2019,05,06,01,26,11.80
2019,05,06,01,27,11.80
2019,05,06,01,28,11.80
2019,05,06,01,29,11.90
2019,05,06,01,30,11.90
2019,05,06,01,31,11.80
2019,05,06,01,32,11.80
2019,05,06,01,33,11.80
2019,05,06,01,34,11.80
2019,05,06,01,35,11.70
2019,05,06,01,36,11.80
2019,05,06,01,37,11.80
2019,05,06,01,38,11.70
2019,05,06,01,39,11.70
2019,05,06,01,40,11.60
2019,05,06,01,41,11.50
2019,05,06,01,42,11.50
2019,05,06,01,43,11.50
2019,05,06,01,44,11.50
2019,05,06,01,45,11.50
2019,05,06,01,46,11.60
2019,05,06,01,47,11.60
2019,05,06,01,48,11.70
2019,05,06,01,49,11.70
2019,05,06,01,50,11.60
2019,05,06,01,51,11.60
2019,05,06,01,52,11.60
2019,05,06,01,53,11.60
2019,05,06,01,54,11.60
2019,05,06,01,55,11.50
2019,05,06,01,56,11.50
2019,05,06,01,57,11.40
2019,05,06,01,58,11.40
2019,05,06,01,59,11.30
2019,05,06,02,00,11.30
2019,05,06,02,01,11.20
2019,05,06,02,02,11.20
2019,05,06,02,03,11.10
2019,05,06,02,04,11.10
2019,05,06,02,05,11.10
2019,05,06,02,06,11.10
2019,05,06,02,07,11.10
2019,05,06,02,08,11.10
2019,05,06,02,09,11.10
2019,05,06,02,10,11.10
2019,05,06,02,11,11.10
2019,05,06,02,12,11.00
2019,05,06,02,13,11.00
2019,05,06,02,14,10.90
2019,05,06,02,15,10.90
2019,05,06,02,16,10.90
2019,05,06,02,17,10.80
2019,05,06,02,18,10.80
2019,05,06,02,19,10.70
2019,05,06,02,20,10.60
2019,05,06,02,21,10.50
2019,05,06,02,22,10.50
2019,05,06,02,23,10.40
2019,05,06,02,24,10.30
2019,05,06,02,25,10.20
2019,05,06,02,26,10.20
2019,05,06,02,27,10.10
2019,05,06,02,28,10.10
2019,05,06,02,29,10.00
2019,05,06,02,30,9.90
2019,05,06,02,31,9.90
2019,05,06,02,32,9.80
2019,05,06,02,33,9.80
2019,05,06,02,34,9.70
2019,05,06,02,35,9.70
2019,05,06,02,36,9.60
2019,05,06,02,37,9.60
2019,05,06,02,38,9.50
2019,05,06,02,39,9.40
2019,05,06,02,40,9.30
2019,05,06,02,41,9.30
2019,05,06,02,42,9.20
2019,05,06,02,43,9.20
2019,05,06,02,44,9.20
2019,05,06,02,45,9.10
2019,05,06,02,46,9.10
2019,05,06,02,47,9.10
2019,05,06,02,48,9.00
2019,05,06,02,49,9.00
2019,05,06,02,50,8.90
2019,05,06,02,51,8.90
2019,05,06,02,52,8.80
2019,05,06,02,53,8.80
2019,05,06,02,54,8.80
2019,05,06,02,55,8.70
2019,05,06,02,56,8.70
2019,05,06,02,57,8.60
2019,05,06,02,58,8.60
2019,05,06,02,59,8.50
2019,05,06,03,00,8.40
2019,05,06,03,01,8.40
2019,05,06,03,02,8.40
2019,05,06,03,03,8.30
2019,05,06,03,04,8.30
2019,05,06,03,05,8.30
2019,05,06,03,06,8.30
2019,05,06,03,07,8.20
2019,05,06,03,08,8.20
2019,05,06,03,09,8.20
2019,05,06,03,10,8.20
2019,05,06,03,11,8.20
2019,05,06,03,12,8.20
2019,05,06,03,13,8.20
2019,05,06,03,14,8.10
2019,05,06,03,15,8.10
2019,05,06,03,16,8.10
2019,05,06,03,17,8.10
2019,05,06,03,18,8.00
2019,05,06,03,19,8.00
2019,05,06,03,20,8.00
2019,05,06,03,21,8.00
2019,05,06,03,22,7.90
2019,05,06,03,23,7.90
2019,05,06,03,24,7.90
2019,05,06,03,25,7.90
2019,05,06,03,26,7.90
2019,05,06,03,27,7.90
2019,05,06,03,28,7.80
2019,05,06,03,29,7.80
2019,05,06,03,30,7.80
2019,05,06,03,31,7.80
2019,05,06,03,32,7.80
2019,05,06,03,33,7.80
2019,05,06,03,34,7.70
2019,05,06,03,35,7.70
2019,05,06,03,36,7.70
2019,05,06,03,37,7.70
2019,05,06,03,38,7.70
2019,05,06,03,39,7.70
2019,05,06,03,40,7.60
2019,05,06,03,41,7.60
2019,05,06,03,42,7.60
2019,05,06,03,43,7.50
2019,05,06,03,44,7.40
2019,05,06,03,45,7.40
2019,05,06,03,46,7.40
2019,05,06,03,47,7.40
2019,05,06,03,48,7.40
2019,05,06,03,49,7.30
2019,05,06,03,50,7.30
2019,05,06,03,51,7.30
2019,05,06,03,52,7.30
2019,05,06,03,53,7.30
2019,05,06,03,54,7.30
2019,05,06,03,55,7.30
2019,05,06,03,56,7.20
2019,05,06,03,57,7.20
2019,05,06,03,58,7.20
2019,05,06,03,59,7.20
2019,05,06,04,00,7.20
2019,05,06,04,01,7.20
2019,05,06,04,02,7.10
2019,05,06,04,03,7.10
2019,05,06,04,04,7.10
2019,05,06,04,05,7.10
2019,05,06,04,06,7.10
2019,05,06,04,07,7.00
2019,05,06,04,08,7.00
2019,05,06,04,09,7.00
2019,05,06,04,10,7.00
2019,05,06,04,11,6.90
2019,05,06,04,12,6.90
2019,05,06,04,13,6.90
2019,05,06,04,14,6.90
2019,05,06,04,15,6.80
2019,05,06,04,16,6.80
2019,05,06,04,17,6.80
2019,05,06,04,18,6.80
2019,05,06,04,19,6.80
2019,05,06,04,20,6.80
2019,05,06,04,21,6.70
2019,05,06,04,22,6.70
2019,05,06,04,23,6.70
2019,05,06,04,24,6.70
2019,05,06,04,25,6.60
2019,05,06,04,26,6.60
2019,05,06,04,27,6.60
2019,05,06,04,28,6.60
2019,05,06,04,29,6.60
2019,05,06,04,30,6.60
2019,05,06,04,31,6.50
2019,05,06,04,32,6.50
2019,05,06,04,33,6.50
2019,05,06,04,34,6.40
2019,05,06,04,35,6.40
2019,05,06,04,36,6.40
2019,05,06,04,37,6.40
2019,05,06,04,38,6.40
2019,05,06,04,39,6.40
2019,05,06,04,40,6.40
2019,05,06,04,41,6.30
2019,05,06,04,42,6.30
2019,05,06,04,43,6.30
2019,05,06,04,44,6.30
2019,05,06,04,45,6.30
2019,05,06,04,46,6.20
2019,05,06,04,47,6.20
2019,05,06,04,48,6.20
2019,05,06,04,49,6.20
2019,05,06,04,50,6.20
2019,05,06,04,51,6.20
2019,05,06,04,52,6.10
2019,05,06,04,53,6.10
2019,05,06,04,54,6.10
2019,05,06,04,55,6.00
2019,05,06,04,56,6.00
2019,05,06,04,57,6.00
2019,05,06,04,58,6.00
2019,05,06,04,59,6.00
2019,05,06,05,00,5.90
2019,05,06,05,01,5.90
2019,05,06,05,02,5.90
2019,05,06,05,03,5.90
2019,05,06,05,04,5.90
2019,05,06,05,05,5.90
2019,05,06,05,06,5.80
2019,05,06,05,07,5.80
2019,05,06,05,08,5.80
2019,05,06,05,09,5.80
2019,05,06,05,10,5.80
2019,05,06,05,11,5.80
2019,05,06,05,12,5.80
2019,05,06,05,13,5.80
2019,05,06,05,14,5.80
2019,05,06,05,15,5.80
2019,05,06,05,16,5.70
2019,05,06,05,17,5.70
2019,05,06,05,18,5.70
2019,05,06,05,19,5.70
2019,05,06,05,20,5.70
2019,05,06,05,21,5.70
2019,05,06,05,22,5.70
2019,05,06,05,23,5.60
2019,05,06,05,24,5.60
2019,05,06,05,25,5.60
2019,05,06,05,26,5.60
2019,05,06,05,27,5.60
2019,05,06,05,28,5.60
2019,05,06,05,29,5.60
2019,05,06,05,30,5.60
2019,05,06,05,31,5.60
2019,05,06,05,32,5.60
2019,05,06,05,33,5.50
2019,05,06,05,34,5.50
2019,05,06,05,35,5.50
2019,05,06,05,36,5.50
2019,05,06,05,37,5.40
2019,05,06,05,38,5.40
2019,05,06,05,39,5.40
2019,05,06,05,40,5.40
2019,05,06,05,41,5.40
2019,05,06,05,42,5.40
2019,05,06,05,43,5.40
2019,05,06,05,44,5.40
2019,05,06,05,45,5.30
2019,05,06,05,46,5.30
2019,05,06,05,47,5.30
2019,05,06,05,48,5.30
2019,05,06,05,49,5.30
2019,05,06,05,50,5.30
2019,05,06,05,51,5.20
2019,05,06,05,52,5.20
2019,05,06,05,53,5.20
2019,05,06,05,54,5.20
2019,05,06,05,55,5.20
2019,05,06,05,56,5.20
2019,05,06,05,57,5.20
2019,05,06,05,58,5.20
2019,05,06,05,59,5.10
2019,05,06,06,00,5.10
2019,05,06,06,01,5.10
2019,05,06,06,02,5.10
2019,05,06,06,03,5.10
2019,05,06,06,04,5.10
2019,05,06,06,05,5.10
2019,05,06,06,06,5.10
2019,05,06,06,07,5.00
2019,05,06,06,08,5.00
2019,05,06,06,09,5.00
2019,05,06,06,10,5.00
2019,05,06,06,11,5.00
2019,05,06,06,12,5.00
2019,05,06,06,13,5.00
2019,05,06,06,14,5.00
2019,05,06,06,15,5.00
2019,05,06,06,16,4.90
2019,05,06,06,17,4.90
2019,05,06,06,18,5.00
2019,05,06,06,19,4.90
2019,05,06,06,20,4.90
2019,05,06,06,21,4.90
2019,05,06,06,22,4.90
2019,05,06,06,23,4.90
2019,05,06,06,24,4.90
2019,05,06,06,25,4.90
2019,05,06,06,26,4.90
2019,05,06,06,27,4.90
2019,05,06,06,28,4.90
2019,05,06,06,29,4.90
2019,05,06,06,30,4.90
2019,05,06,06,31,4.90
2019,05,06,06,32,4.90
2019,05,06,06,33,4.90
2019,05,06,06,34,4.90
2019,05,06,06,35,4.90
2019,05,06,06,36,4.90
2019,05,06,06,37,4.90
2019,05,06,06,38,4.90
2019,05,06,06,39,4.90
2019,05,06,06,40,4.90
2019,05,06,06,41,4.90
2019,05,06,06,42,4.90
2019,05,06,06,43,5.00
2019,05,06,06,44,5.00
2019,05,06,06,45,5.00
2019,05,06,06,46,5.00
2019,05,06,06,47,5.00
2019,05,06,06,48,5.00
2019,05,06,06,49,5.00
2019,05,06,06,50,5.00
2019,05,06,06,51,5.00
2019,05,06,06,52,5.00
2019,05,06,06,53,5.10
2019,05,06,06,54,5.10
2019,05,06,06,55,5.10
2019,05,06,06,56,5.10
2019,05,06,06,57,5.10
2019,05,06,06,58,5.10
2019,05,06,06,59,5.10
2019,05,06,07,00,5.10
2019,05,06,07,01,5.20
2019,05,06,07,02,5.20
2019,05,06,07,03,5.20
2019,05,06,07,04,5.20
2019,05,06,07,05,5.20
2019,05,06,07,06,5.20
2019,05,06,07,07,5.20
2019,05,06,07,08,5.20
2019,05,06,07,09,5.20
2019,05,06,07,10,5.20
2019,05,06,07,11,5.20
2019,05,06,07,12,5.20
2019,05,06,07,13,5.20
2019,05,06,07,14,5.20
2019,05,06,07,15,5.20
2019,05,06,07,16,5.30
2019,05,06,07,17,5.30
2019,05,06,07,18,5.30
2019,05,06,07,19,5.30
2019,05,06,07,20,5.40
2019,05,06,07,21,5.40
2019,05,06,07,22,5.50
2019,05,06,07,23,5.50
2019,05,06,07,24,5.60
2019,05,06,07,25,5.60
2019,05,06,07,26,5.70
2019,05,06,07,27,5.80
2019,05,06,07,28,5.80
2019,05,06,07,29,5.90
2019,05,06,07,30,6.00
2019,05,06,07,31,6.00
2019,05,06,07,32,6.10
2019,05,06,07,33,6.20
2019,05,06,07,34,6.30
2019,05,06,07,35,6.30
2019,05,06,07,36,6.40
2019,05,06,07,37,6.50
2019,05,06,07,38,6.60
2019,05,06,07,39,6.70
2019,05,06,07,40,6.70
2019,05,06,07,41,6.80
2019,05,06,07,42,6.80
2019,05,06,07,43,6.90
2019,05,06,07,44,6.90
2019,05,06,07,45,7.00
2019,05,06,07,46,7.10
2019,05,06,07,47,7.20
2019,05,06,07,48,7.30
2019,05,06,07,49,7.40
2019,05,06,07,50,7.50
2019,05,06,07,51,7.50
2019,05,06,07,52,7.60
2019,05,06,07,53,7.60
2019,05,06,07,54,7.60
2019,05,06,07,55,7.70
2019,05,06,07,56,7.80
2019,05,06,07,57,7.80
2019,05,06,07,58,7.90
2019,05,06,07,59,7.90
2019,05,06,08,00,8.00
2019,05,06,08,01,8.00
2019,05,06,08,02,8.10
2019,05,06,08,03,8.10
2019,05,06,08,04,8.10
2019,05,06,08,05,8.20
2019,05,06,08,06,8.20
2019,05,06,08,07,8.20
2019,05,06,08,08,8.20
2019,05,06,08,09,8.30
2019,05,06,08,10,8.30
2019,05,06,08,11,8.30
2019,05,06,08,12,8.40
2019,05,06,08,13,8.40
2019,05,06,08,14,8.40
2019,05,06,08,15,8.50
2019,05,06,08,16,8.50
2019,05,06,08,17,8.60
2019,05,06,08,18,8.60
2019,05,06,08,19,8.70
2019,05,06,08,20,8.80
2019,05,06,08,21,8.90
2019,05,06,08,22,8.90
2019,05,06,08,23,9.00
2019,05,06,08,24,9.10
2019,05,06,08,25,9.10
2019,05,06,08,26,9.20
2019,05,06,08,27,9.20
2019,05,06,08,28,9.30
2019,05,06,08,29,9.30
2019,05,06,08,30,9.40
2019,05,06,08,31,9.50
2019,05,06,08,32,9.50
2019,05,06,08,33,9.60
2019,05,06,08,34,9.60
2019,05,06,08,35,9.70
2019,05,06,08,36,9.70
2019,05,06,08,37,9.70
2019,05,06,08,38,9.70
2019,05,06,08,39,9.80
2019,05,06,08,40,9.80
2019,05,06,08,41,9.80
2019,05,06,08,42,9.90
2019,05,06,08,43,10.00
2019,05,06,08,44,10.00
2019,05,06,08,45,10.10
2019,05,06,08,46,10.20
2019,05,06,08,47,10.20
2019,05,06,08,48,10.30
2019,05,06,08,49,10.40
2019,05,06,08,50,10.40
2019,05,06,08,51,10.50
2019,05,06,08,52,10.50
2019,05,06,08,53,10.60
2019,05,06,08,54,10.70
2019,05,06,08,55,10.80
2019,05,06,08,56,10.90
2019,05,06,08,57,11.00
2019,05,06,08,58,11.00
2019,05,06,08,59,11.10
2019,05,06,09,00,11.20
2019,05,06,09,01,11.30
2019,05,06,09,02,11.40
2019,05,06,09,03,11.50
2019,05,06,09,04,11.60
2019,05,06,09,05,11.70
2019,05,06,09,06,11.80
2019,05,06,09,07,11.90
2019,05,06,09,08,11.90
2019,05,06,09,09,12.00
2019,05,06,09,10,12.00
2019,05,06,09,11,12.00
2019,05,06,09,12,12.00
2019,05,06,09,13,12.00
2019,05,06,09,14,11.90
2019,05,06,09,15,11.90
2019,05,06,09,16,11.90
2019,05,06,09,17,11.90
2019,05,06,09,18,11.90
2019,05,06,09,19,11.90
2019,05,06,09,20,12.00
2019,05,06,09,21,12.10
2019,05,06,09,22,12.20
2019,05,06,09,23,12.30
2019,05,06,09,24,12.40
2019,05,06,09,25,12.50
2019,05,06,09,26,12.50
2019,05,06,09,27,12.50
2019,05,06,09,28,12.50
2019,05,06,09,29,12.50
2019,05,06,09,30,12.60
2019,05,06,09,31,12.60
2019,05,06,09,32,12.70
2019,05,06,09,33,12.80
2019,05,06,09,34,12.90
2019,05,06,09,35,13.00
2019,05,06,09,36,13.00
2019,05,06,09,37,13.10
2019,05,06,09,38,13.10
2019,05,06,09,39,13.10
2019,05,06,09,40,13.10
2019,05,06,09,41,13.10
2019,05,06,09,42,13.10
2019,05,06,09,43,13.20
2019,05,06,09,44,13.20
2019,05,06,09,45,13.20
2019,05,06,09,46,13.20
2019,05,06,09,47,13.30
2019,05,06,09,48,13.40
2019,05,06,09,49,13.40
2019,05,06,09,50,13.40
2019,05,06,09,51,13.40
2019,05,06,09,52,13.40
2019,05,06,09,53,13.40
2019,05,06,09,54,13.50
2019,05,06,09,55,13.60
2019,05,06,09,56,13.60
2019,05,06,09,57,13.60
2019,05,06,09,58,13.70
2019,05,06,09,59,13.70
2019,05,06,10,00,13.70
2019,05,06,10,01,13.80
2019,05,06,10,02,13.80
2019,05,06,10,03,13.80
2019,05,06,10,04,13.70
2019,05,06,10,05,13.70
2019,05,06,10,06,13.70
2019,05,06,10,07,13.70
2019,05,06,10,08,13.70
2019,05,06,10,09,13.80
2019,05,06,10,10,13.90
2019,05,06,10,11,14.00
2019,05,06,10,12,14.20
2019,05,06,10,13,14.30
2019,05,06,10,14,14.30
2019,05,06,10,15,14.40
2019,05,06,10,16,14.50
2019,05,06,10,17,14.70
2019,05,06,10,18,14.80
2019,05,06,10,19,14.90
2019,05,06,10,20,15.00
2019,05,06,10,21,15.10
2019,05,06,10,22,15.20
2019,05,06,10,23,15.20
2019,05,06,10,24,15.30
2019,05,06,10,25,15.30
2019,05,06,10,26,15.20
2019,05,06,10,27,15.20
2019,05,06,10,28,15.10
2019,05,06,10,29,15.10
2019,05,06,10,30,15.10
2019,05,06,10,31,15.10
2019,05,06,10,32,15.10
2019,05,06,10,33,15.20
2019,05,06,10,34,15.20
2019,05,06,10,35,15.30
2019,05,06,10,36,15.30
2019,05,06,10,37,15.40
2019,05,06,10,38,15.40
2019,05,06,10,39,15.40
2019,05,06,10,40,15.40
2019,05,06,10,41,15.40
2019,05,06,10,42,15.40
2019,05,06,10,43,15.50
2019,05,06,10,44,15.70
2019,05,06,10,45,15.80
2019,05,06,10,46,16.00
2019,05,06,10,47,16.10
2019,05,06,10,48,16.30
2019,05,06,10,49,16.30
2019,05,06,10,50,16.40
2019,05,06,10,51,16.40
2019,05,06,10,52,16.50
2019,05,06,10,53,16.60
2019,05,06,10,54,16.60
2019,05,06,10,55,16.60
2019,05,06,10,56,16.70
2019,05,06,10,57,16.80
2019,05,06,10,58,16.90
2019,05,06,10,59,17.00
2019,05,06,11,00,17.10
2019,05,06,11,01,17.10
2019,05,06,11,02,17.10
2019,05,06,11,03,17.20
2019,05,06,11,04,17.20
2019,05,06,11,05,17.20
2019,05,06,11,06,17.30
2019,05,06,11,07,17.40
2019,05,06,11,08,17.50
2019,05,06,11,09,17.50
2019,05,06,11,10,17.60
2019,05,06,11,11,17.60
2019,05,06,11,12,17.70
2019,05,06,11,13,17.70
2019,05,06,11,14,17.80
2019,05,06,11,15,17.90
2019,05,06,11,16,18.00
2019,05,06,11,17,18.10
2019,05,06,11,18,18.20
2019,05,06,11,19,18.30
2019,05,06,11,20,18.50
2019,05,06,11,21,18.60
2019,05,06,11,22,18.60
2019,05,06,11,23,18.70
2019,05,06,11,24,18.80
2019,05,06,11,25,18.90
2019,05,06,11,26,18.90
2019,05,06,11,27,18.90
2019,05,06,11,28,18.90
2019,05,06,11,29,18.90
2019,05,06,11,30,18.90
2019,05,06,11,31,18.90
2019,05,06,11,32,18.90
2019,05,06,11,33,19.00
2019,05,06,11,34,19.10
2019,05,06,11,35,19.20
2019,05,06,11,36,19.20
2019,05,06,11,37,19.20
2019,05,06,11,38,19.20
2019,05,06,11,39,19.20
2019,05,06,11,40,19.30
2019,05,06,11,41,19.30
2019,05,06,11,42,19.40
2019,05,06,11,43,19.40
2019,05,06,11,44,19.50
2019,05,06,11,45,19.60
2019,05,06,11,46,19.50
2019,05,06,11,47,19.40
2019,05,06,11,48,19.30
2019,05,06,11,49,19.30
2019,05,06,11,50,19.30
2019,05,06,11,51,19.30
2019,05,06,11,52,19.40
2019,05,06,11,53,19.40
2019,05,06,11,54,19.50
2019,05,06,11,55,19.60
2019,05,06,11,56,19.70
2019,05,06,11,57,19.80
2019,05,06,11,58,19.90
2019,05,06,11,59,20.00
2019,05,06,12,00,20.00
2019,05,06,12,01,20.10
2019,05,06,12,02,20.10
2019,05,06,12,03,20.00
2019,05,06,12,04,20.00
2019,05,06,12,05,20.00
2019,05,06,12,06,20.00
2019,05,06,12,07,20.10
2019,05,06,12,08,20.20
2019,05,06,12,09,20.20
2019,05,06,12,10,20.30
2019,05,06,12,11,20.30
2019,05,06,12,12,20.30
2019,05,06,12,13,20.30
2019,05,06,12,14,20.30
2019,05,06,12,15,20.30
2019,05,06,12,16,20.40
2019,05,06,12,17,20.40
2019,05,06,12,18,20.40
2019,05,06,12,19,20.40
2019,05,06,12,20,20.40
2019,05,06,12,21,20.50
2019,05,06,12,22,20.50
2019,05,06,12,23,20.50
2019,05,06,12,24,20.50
2019,05,06,12,25,20.50
2019,05,06,12,26,20.60
2019,05,06,12,27,20.70
2019,05,06,12,28,20.80
2019,05,06,12,29,20.90
2019,05,06,12,30,21.00
2019,05,06,12,31,21.00
2019,05,06,12,32,21.10
2019,05,06,12,33,21.20
2019,05,06,12,34,21.20
2019,05,06,12,35,21.30
2019,05,06,12,36,21.30
2019,05,06,12,37,21.30
2019,05,06,12,38,21.30
2019,05,06,12,39,21.40
2019,05,06,12,40,21.40
2019,05,06,12,41,21.50
2019,05,06,12,42,21.50
2019,05,06,12,43,21.50
2019,05,06,12,44,21.40
2019,05,06,12,45,21.40
2019,05,06,12,46,21.30
2019,05,06,12,47,21.30
2019,05,06,12,48,21.30
2019,05,06,12,49,21.40
2019,05,06,12,50,21.40
2019,05,06,12,51,21.40
2019,05,06,12,52,21.40
2019,05,06,12,53,21.40
2019,05,06,12,54,21.50
2019,05,06,12,55,21.60
2019,05,06,12,56,21.70
2019,05,06,12,57,21.70
2019,05,06,12,58,21.80
2019,05,06,12,59,21.80
2019,05,06,13,00,21.80
2019,05,06,13,01,21.90
2019,05,06,13,02,21.90
2019,05,06,13,03,21.90
2019,05,06,13,04,21.90
2019,05,06,13,05,21.90
2019,05,06,13,06,21.90
2019,05,06,13,07,21.90
2019,05,06,13,08,21.90
2019,05,06,13,09,21.90
2019,05,06,13,10,22.00
2019,05,06,13,11,22.00
2019,05,06,13,12,22.00
2019,05,06,13,13,22.00
2019,05,06,13,14,22.00
2019,05,06,13,15,22.00
2019,05,06,13,16,22.00
2019,05,06,13,17,22.00
2019,05,06,13,18,22.00
2019,05,06,13,19,22.10
2019,05,06,13,20,22.10
2019,05,06,13,21,22.10
2019,05,06,13,22,22.10
2019,05,06,13,23,22.10
2019,05,06,13,24,22.20
2019,05,06,13,25,22.30
2019,05,06,13,26,22.40
2019,05,06,13,27,22.40
2019,05,06,13,28,22.50
2019,05,06,13,29,22.50
2019,05,06,13,30,22.50
2019,05,06,13,31,22.40
2019,05,06,13,32,22.40
2019,05,06,13,33,22.40
2019,05,06,13,34,22.40
2019,05,06,13,35,22.40
2019,05,06,13,36,22.40
2019,05,06,13,37,22.50
2019,05,06,13,38,22.60
2019,05,06,13,39,22.70
2019,05,06,13,40,22.70
2019,05,06,13,41,22.70
2019,05,06,13,42,22.70
2019,05,06,13,43,22.70
2019,05,06,13,44,22.60
2019,05,06,13,45,22.60
2019,05,06,13,46,22.60
2019,05,06,13,47,22.70
2019,05,06,13,48,22.70
2019,05,06,13,49,22.70
2019,05,06,13,50,22.70
2019,05,06,13,51,22.70
2019,05,06,13,52,22.80
2019,05,06,13,53,22.80
2019,05,06,13,54,22.80
2019,05,06,13,55,22.80
2019,05,06,13,56,22.80
2019,05,06,13,57,22.80
2019,05,06,13,58,22.90
2019,05,06,13,59,22.90
2019,05,06,14,00,23.00
2019,05,06,14,01,23.20
2019,05,06,14,02,23.20
2019,05,06,14,03,23.30
2019,05,06,14,04,23.30
2019,05,06,14,05,23.30
2019,05,06,14,06,23.30
2019,05,06,14,07,23.30
2019,05,06,14,08,23.30
2019,05,06,14,09,23.20
2019,05,06,14,10,23.20
2019,05,06,14,11,23.20
2019,05,06,14,12,23.30
2019,05,06,14,13,23.30
2019,05,06,14,14,23.40
2019,05,06,14,15,23.50
2019,05,06,14,16,23.50
2019,05,06,14,17,23.50
2019,05,06,14,18,23.50
2019,05,06,14,19,23.50
2019,05,06,14,20,23.50
2019,05,06,14,21,23.50
2019,05,06,14,22,23.50
2019,05,06,14,23,23.50
2019,05,06,14,24,23.50
2019,05,06,14,25,23.60
2019,05,06,14,26,23.60
2019,05,06,14,27,23.60
2019,05,06,14,28,23.70
2019,05,06,14,29,23.70
2019,05,06,14,30,23.70
2019,05,06,14,31,23.80
2019,05,06,14,32,23.80
2019,05,06,14,33,23.80
2019,05,06,14,34,23.80
2019,05,06,14,35,23.80
2019,05,06,14,36,23.90
2019,05,06,14,37,24.00
2019,05,06,14,38,24.10
2019,05,06,14,39,24.10
2019,05,06,14,40,24.10
2019,05,06,14,41,24.10
2019,05,06,14,42,24.10
2019,05,06,14,43,24.10
2019,05,06,14,44,24.20
2019,05,06,14,45,24.20
2019,05,06,14,46,24.10
2019,05,06,14,47,24.10
2019,05,06,14,48,24.10
2019,05,06,14,49,24.10
2019,05,06,14,50,24.10
2019,05,06,14,51,24.20
2019,05,06,14,52,24.20
2019,05,06,14,53,24.30
2019,05,06,14,54,24.40
2019,05,06,14,55,24.40
2019,05,06,14,56,24.40
2019,05,06,14,57,24.30
2019,05,06,14,58,24.30
2019,05,06,14,59,24.40
2019,05,06,15,00,24.40
2019,05,06,15,01,24.50
2019,05,06,15,02,24.50
2019,05,06,15,03,24.40
2019,05,06,15,04,24.40
2019,05,06,15,05,24.40
2019,05,06,15,06,24.40
2019,05,06,15,07,24.40
2019,05,06,15,08,24.40
2019,05,06,15,09,24.40
2019,05,06,15,10,24.40
2019,05,06,15,11,24.30
2019,05,06,15,12,24.30
2019,05,06,15,13,24.30
2019,05,06,15,14,24.30
2019,05,06,15,15,24.30
2019,05,06,15,16,24.40
2019,05,06,15,17,24.40
2019,05,06,15,18,24.40
2019,05,06,15,19,24.40
2019,05,06,15,20,24.50
2019,05,06,15,21,24.60
2019,05,06,15,22,24.60
2019,05,06,15,23,24.70
2019,05,06,15,24,24.80
2019,05,06,15,25,24.80
2019,05,06,15,26,24.80
2019,05,06,15,27,24.80
2019,05,06,15,28,24.80
2019,05,06,15,29,24.70
2019,05,06,15,30,24.70
2019,05,06,15,31,24.60
2019,05,06,15,32,24.50
2019,05,06,15,33,24.50
2019,05,06,15,34,24.40
2019,05,06,15,35,24.40
2019,05,06,15,36,24.40
2019,05,06,15,37,24.50
2019,05,06,15,38,24.60
2019,05,06,15,39,24.60
2019,05,06,15,40,24.60
2019,05,06,15,41,24.60
2019,05,06,15,42,24.60
2019,05,06,15,43,24.70
2019,05,06,15,44,24.70
2019,05,06,15,45,24.70
2019,05,06,15,46,24.70
2019,05,06,15,47,24.70
2019,05,06,15,48,24.70
2019,05,06,15,49,24.70
2019,05,06,15,50,24.70
2019,05,06,15,51,24.80
2019,05,06,15,52,24.80
2019,05,06,15,53,24.80
2019,05,06,15,54,24.80
2019,05,06,15,55,24.70
2019,05,06,15,56,24.70
2019,05,06,15,57,24.60
2019,05,06,15,58,24.60
2019,05,06,15,59,24.60
2019,05,06,16,00,24.50
2019,05,06,16,01,24.50
2019,05,06,16,02,24.50
2019,05,06,16,03,24.60
2019,05,06,16,04,24.60
2019,05,06,16,05,24.60
2019,05,06,16,06,24.70
2019,05,06,16,07,24.70
2019,05,06,16,08,24.70
2019,05,06,16,09,24.80
2019,05,06,16,10,24.80
2019,05,06,16,11,24.70
2019,05,06,16,12,24.70
2019,05,06,16,13,24.70
2019,05,06,16,14,24.70
2019,05,06,16,15,24.60
2019,05,06,16,16,24.50
2019,05,06,16,17,24.40
2019,05,06,16,18,24.40
2019,05,06,16,19,24.30
2019,05,06,16,20,24.30
2019,05,06,16,21,24.30
2019,05,06,16,22,24.30
2019,05,06,16,23,24.30
2019,05,06,16,24,24.30
2019,05,06,16,25,24.30
2019,05,06,16,26,24.20
2019,05,06,16,27,24.10
2019,05,06,16,28,24.10
2019,05,06,16,29,24.10
2019,05,06,16,30,24.10
2019,05,06,16,31,24.10
2019,05,06,16,32,24.10
2019,05,06,16,33,24.10
2019,05,06,16,34,24.00
2019,05,06,16,35,24.00
2019,05,06,16,36,23.90
2019,05,06,16,37,23.90
2019,05,06,16,38,24.00
2019,05,06,16,39,24.00
2019,05,06,16,40,23.90
2019,05,06,16,41,23.90
2019,05,06,16,42,23.90
2019,05,06,16,43,24.00
2019,05,06,16,44,24.00
2019,05,06,16,45,24.00
2019,05,06,16,46,23.90
2019,05,06,16,47,23.90
2019,05,06,16,48,23.90
2019,05,06,16,49,23.90
2019,05,06,16,50,23.90
2019,05,06,16,51,23.90
2019,05,06,16,52,23.90
2019,05,06,16,53,23.90
2019,05,06,16,54,23.90
2019,05,06,16,55,23.90
2019,05,06,16,56,23.90
2019,05,06,16,57,23.90
2019,05,06,16,58,23.90
2019,05,06,16,59,24.00
2019,05,06,17,00,24.10
2019,05,06,17,01,24.20
2019,05,06,17,02,24.20
2019,05,06,17,03,24.20
2019,05,06,17,04,24.20
2019,05,06,17,05,24.30
2019,05,06,17,06,24.20
2019,05,06,17,07,24.10
2019,05,06,17,08,24.10
2019,05,06,17,09,24.00
2019,05,06,17,10,24.10
2019,05,06,17,11,24.10
2019,05,06,17,12,24.00
2019,05,06,17,13,24.00
2019,05,06,17,14,24.00
2019,05,06,17,15,24.00
2019,05,06,17,16,24.00
2019,05,06,17,17,24.10
2019,05,06,17,18,24.10
2019,05,06,17,19,24.10
2019,05,06,17,20,24.20
2019,05,06,17,21,24.20
2019,05,06,17,22,24.20
2019,05,06,17,23,24.10
2019,05,06,17,24,24.10
2019,05,06,17,25,24.00
2019,05,06,17,26,24.00
2019,05,06,17,27,23.90
2019,05,06,17,28,23.80
2019,05,06,17,29,23.80
2019,05,06,17,30,23.70
2019,05,06,17,31,23.70
2019,05,06,17,32,23.70
2019,05,06,17,33,23.60
2019,05,06,17,34,23.60
2019,05,06,17,35,23.60